Theta_e
300 300 300 300 300 300 300 300 300 301 302 302 302 302 302 303 304 306 305 307 309 313 313 311 311 310 311 314 316 317 317 320 328 329 329 327 326 327 328 327 327 328 333 337 338
300 300 300 300 300 300 300 300 301 301 301 302 302 302 302 304 308 310 310 314 313 311 308 305 308 312 311 313 314 313 318 321 321 324 325 325 325 327 328 327 328 328 337 335 338
300 300 300 300 300 300 300 300 301 301 301 302 302 302 303 304 317 317 312 308 308 309 311 309 310 311 311 313 313 314 316 321 322 323 323 324 325 325 324 326 326 327 328 335 338
299 300 301 301 301 300 300 301 301 301 301 302 302 302 304 309 315 311 310 311 312 312 312 313 313 310 310 311 313 311 313 315 318 320 320 321 323 322 323 324 325 326 327 327 335
305 301 300 301 301 301 301 301 301 301 301 302 302 303 305 314 318 311 311 312 312 312 312 312 312 311 308 309 311 311 312 313 314 316 319 321 321 321 322 322 323 325 326 327 328
308 308 307 300 301 302 302 302 302 302 302 303 302 303 306 312 311 310 311 311 310 310 311 312 312 312 311 310 309 310 311 311 312 313 315 316 319 320 321 322 323 324 326 326 327
308 308 308 306 300 302 303 302 303 302 305 306 303 304 306 307 310 310 310 309 309 310 311 311 312 312 312 309 312 311 310 310 311 313 314 316 316 318 318 319 323 325 325 325 325
305 307 308 307 301 302 303 303 303 304 307 307 304 305 306 313 310 310 309 309 310 310 310 311 311 312 312 312 311 309 309 309 310 310 314 315 316 317 317 318 318 319 320 323 325
302 307 307 308 302 303 303 304 310 310 310 307 306 314 315 315 311 310 309 310 310 310 311 311 311 312 311 309 307 307 308 309 309 310 311 313 314 316 317 318 318 318 319 320 322
302 304 307 308 303 304 307 312 311 313 312 315 312 314 314 314 311 310 310 310 310 309 310 311 311 308 307 307 310 308 308 309 309 310 310 309 309 311 313 314 315 316 318 319 320
310 305 306 307 304 304 312 312 310 313 310 310 314 315 316 313 310 310 311 310 310 310 308 310 307 308 308 309 311 311 311 311 311 312 311 310 311 311 311 313 312 313 314 316 318
309 310 303 306 308 308 311 312 311 310 309 311 311 311 311 311 310 310 310 310 309 308 308 306 307 309 309 309 309 310 310 310 311 312 312 311 312 312 311 311 312 313 314 315 316
309 309 306 306 311 312 311 312 311 311 310 310 312 312 312 312 311 310 310 310 309 308 308 307 308 309 309 308 311 311 310 313 312 311 311 311 311 311 312 311 312 313 314 315 317
309 310 308 306 309 311 311 311 311 312 309 314 311 310 310 310 309 310 310 310 309 308 307 307 308 308 308 309 313 312 313 314 314 313 311 311 311 310 310 310 310 311 313 314 314
308 310 309 305 312 313 312 311 310 313 317 315 311 311 310 310 311 311 311 310 308 308 307 307 308 307 308 313 313 312 313 313 313 313 311 311 309 311 309 310 310 310 312 313 314
310 310 308 306 312 312 311 311 312 315 319 311 310 311 309 310 310 311 311 310 310 308 308 307 309 309 312 313 313 312 312 311 310 310 311 311 309 311 309 309 310 310 312 313 313
311 307 310 307 311 309 309 312 315 319 316 312 310 311 310 311 312 312 312 309 308 309 308 307 308 311 313 312 310 309 310 310 310 309 310 310 310 311 309 309 312 314 314 315 315
308 311 307 308 309 309 311 310 316 316 311 311 310 311 311 311 311 312 310 309 310 309 307 307 311 309 311 309 308 308 312 312 315 313 312 312 312 311 310 313 313 313 313 314 315
313 314 313 310 313 310 312 311 314 313 310 310 310 311 312 311 311 310 310 310 311 310 311 311 311 311 311 310 310 311 312 312 314 314 317 313 311 310 315 314 313 313 313 312 313
315 315 314 313 312 311 308 313 314 314 311 311 311 312 313 311 311 309 310 312 311 311 308 311 311 311 311 310 310 309 309 310 311 315 316 312 312 312 314 314 313 311 311 311 312
313 315 314 313 310 311 309 312 313 311 311 310 310 311 311 311 310 309 310 310 312 311 310 311 311 312 310 310 309 307 310 312 312 313 314 313 311 313 315 312 311 310 311 311 312
312 311 314 310 307 308 311 313 310 311 312 310 311 311 311 310 310 310 310 310 311 311 311 311 310 312 311 311 310 309 309 309 308 310 313 311 313 312 311 310 310 310 311 313 314
311 312 311 311 305 306 307 310 310 310 312 311 310 310 309 309 310 311 312 312 311 310 311 310 309 314 312 310 311 312 312 313 311 310 311 315 313 312 312 313 311 311 313 313 314
311 307 310 310 309 308 308 309 310 310 311 309 309 309 310 310 309 310 310 310 310 311 313 311 313 313 314 314 313 313 312 312 313 313 313 313 311 311 312 313 312 311 313 313 315
307 306 304 303 304 304 307 309 310 309 309 308 308 309 309 309 308 308 309 309 310 312 311 312 315 313 313 313 313 313 313 313 313 312 312 311 311 311 310 311 312 312 313 314 315
305 303 304 303 304 305 306 307 309 309 308 308 309 308 307 307 307 308 307 309 309 310 311 312 313 312 312 312 312 313 314 313 313 312 312 311 310 309 310 311 311 312 313 312 313
304 304 304 303 302 304 305 305 306 307 306 308 306 306 307 307 308 309 309 309 308 309 308 309 311 313 312 311 311 313 315 315 314 313 311 310 310 315 315 315 313 312 312 312 312
Wind_Speed
16 15 13 13 13 12 12 11 11 10 10 11 13 14 17 19 18 16 15 8 7 5 10 12 9 8 8 9 13 5 2 8 9 11 13 18 7 21 22 16 25 30 2 4 25
18 17 16 15 14 13 13 13 12 12 12 12 14 16 18 19 18 5 1 3 5 7 9 8 7 3 6 8 9 6 5 8 6 8 13 23 24 27 20 24 15 30 11 13 27
20 18 17 16 15 15 14 14 14 13 13 13 15 17 15 15 7 4 6 7 5 5 7 1 2 2 3 10 10 5 14 10 10 14 17 20 29 28 16 15 21 14 27 5 28
20 19 19 19 17 16 15 15 14 13 12 14 15 18 13 7 1 3 7 8 6 7 7 5 4 2 2 4 6 6 12 13 16 23 24 21 34 30 26 28 34 23 22 11 11
21 21 21 19 18 17 17 15 14 13 13 13 15 14 9 4 4 4 7 7 5 5 5 8 8 3 3 4 8 6 9 17 22 25 29 29 29 28 32 35 33 33 20 17 11
22 21 21 20 19 18 16 15 15 14 12 14 14 10 6 4 3 4 6 6 7 11 10 8 5 11 6 3 2 8 11 14 14 20 19 15 24 28 46 32 32 39 20 17 11
24 24 24 22 19 18 16 14 13 11 11 12 9 8 10 8 4 1 5 6 5 8 5 6 8 7 8 9 11 15 8 10 7 6 5 14 15 20 34 25 25 37 32 19 20
24 24 25 25 22 17 14 13 11 11 10 11 7 7 7 9 0 3 3 11 3 7 7 8 9 9 3 6 9 6 4 3 4 7 5 8 24 21 29 24 27 27 38 22 21
26 25 25 25 19 16 12 10 11 10 10 6 5 4 7 2 7 3 4 5 6 10 8 7 9 8 4 2 5 3 5 7 7 7 6 6 16 11 17 24 28 30 31 41 22
28 26 24 25 19 13 8 9 8 4 3 5 5 5 3 5 7 3 5 2 10 16 14 6 5 3 3 4 3 6 5 6 4 5 2 10 15 7 14 19 19 28 31 36 39
30 29 25 22 16 8 7 4 14 1 14 12 11 11 17 8 4 2 5 5 6 11 3 6 4 5 11 9 11 9 12 14 10 7 2 9 14 12 9 14 16 25 29 31 39
30 28 24 17 7 5 7 6 12 10 10 18 20 22 23 15 10 5 8 1 3 3 6 7 4 4 6 6 5 6 6 6 4 6 8 7 17 15 7 8 19 23 29 32 35
30 26 23 11 2 5 10 7 7 12 4 12 6 9 12 9 13 16 9 4 4 3 4 2 9 9 10 7 9 7 6 12 15 12 4 5 15 16 10 8 17 23 28 28 30
30 25 19 8 1 4 12 11 12 14 3 5 6 5 9 5 5 12 15 8 3 7 3 6 8 5 7 3 4 5 9 11 13 8 4 3 15 15 11 12 6 19 26 29 35
30 22 13 5 1 4 12 9 11 10 3 6 5 6 6 6 3 5 18 17 8 7 6 10 7 9 4 1 2 6 7 7 7 10 4 12 5 15 5 13 17 15 24 29 32
25 14 8 3 1 8 10 12 5 2 3 2 3 5 2 7 13 12 13 15 10 5 4 10 10 2 5 4 2 4 4 8 5 3 10 12 6 17 8 8 13 12 19 28 31
18 9 6 6 3 9 8 3 3 4 14 5 7 6 7 5 6 7 3 1 3 3 4 4 3 2 3 1 4 4 5 5 4 1 10 7 8 19 5 10 5 5 19 28 31
13 9 8 9 3 12 10 4 5 6 11 9 8 9 2 11 5 10 7 6 5 6 1 1 6 2 2 5 6 5 5 4 5 2 7 9 6 8 1 4 9 10 18 26 32
12 8 10 5 7 11 4 4 4 5 6 6 7 3 5 8 5 8 6 1 4 5 2 4 3 8 7 4 2 4 5 8 6 11 6 4 7 8 5 4 7 13 18 25 32
8 10 7 6 9 7 5 2 4 10 8 5 2 4 7 8 3 5 4 3 4 3 4 3 7 8 6 7 9 8 3 2 1 3 5 5 7 7 7 9 12 13 18 30 35
3 2 3 3 5 3 3 4 4 21 14 1 4 3 2 2 3 5 5 7 2 2 5 1 3 5 5 6 12 5 3 2 3 5 3 5 5 5 6 8 10 13 24 27 32
4 2 3 4 4 2 0 3 9 13 18 4 3 2 1 3 4 3 5 3 5 2 3 2 3 5 15 20 16 12 9 5 4 4 4 2 9 3 8 11 7 17 27 32 34
8 4 3 6 2 3 6 6 4 5 7 6 4 2 2 3 3 3 4 8 3 5 3 1 3 6 7 2 3 3 2 2 1 2 6 3 6 5 11 10 16 14 29 35 33
5 4 4 4 4 2 5 5 6 7 2 9 4 8 5 4 1 6 7 4 16 7 4 6 5 11 12 17 8 11 16 15 12 6 3 10 15 19 19 12 13 18 31 23 28
7 3 3 4 3 6 2 3 6 5 4 6 4 3 2 3 7 7 4 13 6 8 8 5 6 10 17 22 21 21 20 20 18 15 12 15 20 20 17 14 17 22 27 32 27
4 6 7 7 11 6 4 3 5 5 6 6 3 8 7 5 9 19 14 7 7 6 4 4 4 8 15 19 16 18 18 19 19 19 16 20 24 19 21 32 19 17 13 31 31
5 7 4 6 6 3 1 4 7 14 11 7 9 6 6 9 18 23 25 26 16 11 6 5 2 3 6 10 14 6 6 5 9 12 8 12 15 5 13 15 10 20 21 29 34
Wind_Direction
356 351 347 343 340 337 335 331 328 324 321 323 322 317 315 317 317 302 286 278 275 302 315 303 259 243 226 232 226 228 185 227 226 241 259 297 316 301 320 326 340 334 243 159 187
1 355 349 343 337 332 329 327 323 320 317 319 322 322 323 326 327 338 340 37 356 306 303 303 227 227 212 225 221 196 200 223 228 241 285 302 297 298 323 330 339 340 342 170 181
359 356 351 343 335 329 325 322 321 316 314 315 319 325 328 331 345 55 44 29 24 43 19 12 167 306 235 230 223 222 240 245 266 275 276 288 293 299 311 299 300 332 325 276 176
355 351 347 342 335 328 322 318 318 314 312 314 319 326 333 327 177 51 10 84 60 50 11 1 354 280 261 247 248 258 268 262 267 266 269 273 283 285 286 274 288 292 301 282 229
353 349 344 338 333 328 323 317 315 314 314 314 318 325 342 300 245 64 47 50 8 346 354 337 315 310 198 248 301 257 274 274 270 267 257 263 266 272 281 280 288 291 288 288 245
349 348 344 337 328 324 319 314 315 316 315 315 318 323 325 284 106 16 12 337 356 330 314 334 307 344 286 307 327 302 308 299 291 277 281 266 268 274 271 280 285 287 282 287 302
344 344 342 338 329 321 317 313 313 310 316 321 313 314 293 257 150 319 340 348 317 325 331 325 310 316 327 331 320 314 310 312 281 264 268 291 285 256 269 295 284 281 282 274 275
345 341 340 338 331 322 318 317 314 307 310 319 313 305 264 146 152 138 308 315 289 310 284 275 274 259 252 278 324 323 304 320 320 3 292 194 264 263 277 290 289 291 292 274 269
349 342 339 339 332 323 323 322 318 307 302 301 312 315 272 193 212 187 320 359 318 309 286 279 264 203 238 65 359 318 262 270 315 238 228 175 267 283 295 277 269 273 278 286 273
353 345 339 339 331 328 339 342 346 344 24 304 216 311 244 8 174 12 355 50 307 315 303 275 213 100 357 94 235 250 267 264 288 299 60 288 282 299 309 314 298 290 284 275 279
345 345 339 341 334 330 20 53 14 37 316 268 269 256 289 306 316 359 346 307 342 336 1 319 88 211 242 230 238 253 261 270 272 243 279 277 286 288 294 302 307 306 307 298 281
339 338 339 341 341 346 1 34 12 317 300 285 259 257 266 273 273 261 308 166 327 301 337 9 293 273 285 308 300 296 271 286 285 291 289 266 278 279 264 268 284 284 290 295 294
340 334 335 336 292 2 350 4 353 329 319 298 223 230 225 232 238 254 239 206 225 300 319 226 261 295 316 317 10 353 360 343 318 293 271 290 283 291 280 260 290 295 293 292 297
339 338 333 337 282 352 41 18 340 325 54 275 160 214 176 218 270 244 230 200 230 225 238 256 257 274 300 314 14 331 332 329 332 341 297 288 283 278 293 295 260 281 291 292 295
338 335 331 308 44 39 337 328 313 314 66 177 164 195 209 195 295 246 208 197 215 225 121 248 265 270 282 183 297 274 313 318 290 288 319 283 263 282 306 292 299 278 278 294 295
347 336 338 222 32 357 334 336 300 36 19 125 69 11 9 245 254 265 191 204 241 204 205 235 268 157 161 216 195 326 349 307 264 216 266 271 216 274 246 264 273 292 309 306 308
356 359 2 168 57 348 345 3 59 40 330 29 16 338 328 318 331 14 351 185 245 358 346 335 310 124 140 292 340 79 56 326 316 289 256 203 233 254 260 276 26 356 339 331 326
13 49 77 113 46 2 4 56 74 342 27 21 0 319 7 21 19 349 8 354 46 56 329 54 332 10 183 205 219 215 167 180 280 318 306 308 250 245 317 76 344 337 328 332 324
54 83 76 86 11 360 3 61 189 351 343 351 338 304 8 35 354 7 341 20 67 41 35 328 261 324 264 243 197 234 172 204 201 251 257 240 284 306 27 327 325 306 326 320 322
77 76 73 46 14 1 61 300 322 333 310 47 46 350 341 344 51 18 301 342 9 81 152 318 287 224 248 329 284 187 218 266 16 270 243 253 263 246 312 315 310 319 319 312 315
38 60 40 321 329 23 117 245 314 325 338 230 264 257 343 3 326 316 254 316 58 12 81 106 207 275 316 218 259 267 195 167 129 174 234 283 250 202 247 258 278 294 306 300 299
45 43 19 352 36 30 192 327 325 347 351 317 80 54 85 302 276 270 234 256 89 148 297 165 242 277 275 278 273 258 266 175 151 230 237 219 264 211 222 241 264 294 302 297 295
356 318 304 328 74 339 313 325 333 328 5 22 322 115 282 271 302 246 289 305 226 194 201 154 251 296 293 300 46 87 187 134 130 150 215 224 267 227 255 269 280 289 294 292 293
5 9 338 41 104 45 357 285 328 310 49 20 346 7 17 337 360 292 293 275 322 286 196 164 238 247 268 277 281 274 272 271 237 219 229 238 287 279 273 264 269 276 276 298 305
17 39 21 314 327 327 278 281 307 350 9 16 333 327 69 291 302 255 290 312 304 268 148 139 263 261 272 272 275 279 272 273 259 243 239 265 257 264 275 263 258 259 338 317 309
40 0 343 305 304 316 354 339 314 340 339 304 220 287 272 244 235 280 279 279 245 241 144 157 263 291 288 280 273 275 267 263 259 256 249 253 264 273 282 277 254 240 246 289 299
30 6 313 292 320 328 204 360 310 310 299 300 296 291 273 273 302 281 268 263 249 253 174 166 229 278 278 306 310 286 319 323 314 252 246 254 266 336 337 342 314 286 260 273 288